Time,TemperatureF,DewpointF,PressureIn,WindDirection,WindDirectionDegrees,WindSpeedMPH,WindSpeedGustMPH,Humidity,HourlyPrecipIn,Conditions,Clouds,dailyrainin,SoftwareType,DateUTC
2013-05-24 00:29:00,40.1,26.1,29.86,East,83,3.0,5.0,57,0.00,,,0.00,VWS V14.01,2013-05-24 07:29:00,
2013-05-24 00:58:00,41.4,25.1,29.86,ENE,77,3.0,7.0,52,0.00,,,0.00,VWS V14.01,2013-05-24 07:58:00,
2013-05-24 01:28:00,40.9,23.7,29.85,East,79,2.0,5.0,50,0.00,,,0.00,VWS V14.01,2013-05-24 08:28:00,
2013-05-24 01:58:00,40.5,21.4,29.85,East,81,2.0,5.0,46,0.00,,,0.00,VWS V14.01,2013-05-24 08:58:00,
2013-05-24 02:28:00,39.1,20.1,29.85,East,79,2.0,3.0,46,0.00,,,0.00,VWS V14.01,2013-05-24 09:28:00,
2013-05-24 02:58:00,38.1,19.7,29.84,ENE,77,0.0,4.0,47,0.00,,,0.00,VWS V14.01,2013-05-24 09:58:00,
2013-05-24 03:28:00,37.1,20.7,29.85,ENE,74,1.0,4.0,51,0.00,,,0.00,VWS V14.01,2013-05-24 10:28:00,
2013-05-24 03:58:00,36.1,19.7,29.85,East,79,2.0,5.0,51,0.00,,,0.00,VWS V14.01,2013-05-24 10:58:00,
2013-05-24 04:28:00,37.0,17.1,29.85,East,79,1.0,3.0,44,0.00,,,0.00,VWS V14.01,2013-05-24 11:28:00,
2013-05-24 04:58:00,37.8,16.2,29.86,ENE,72,0.0,4.0,41,0.00,,,0.00,VWS V14.01,2013-05-24 11:58:00,
2013-05-24 05:28:00,36.3,16.5,29.88,ENE,78,1.0,5.0,44,0.00,,,0.00,VWS V14.01,2013-05-24 12:28:00,
2013-05-24 05:58:00,35.6,17.9,29.88,East,81,2.0,5.0,48,0.00,,,0.00,VWS V14.01,2013-05-24 12:58:00,
2013-05-24 06:28:00,37.0,18.7,29.89,ENE,73,3.0,5.0,47,0.00,,,0.00,VWS V14.01,2013-05-24 13:28:00,
2013-05-24 06:58:00,43.3,20.0,29.89,East,79,1.0,5.0,39,0.00,,,0.00,VWS V14.01,2013-05-24 13:58:00,
2013-05-24 07:28:00,51.7,21.3,29.89,East,79,0.0,3.0,30,0.00,,,0.00,VWS V14.01,2013-05-24 14:28:00,
2013-05-24 07:58:00,52.8,27.9,29.88,ESE,106,0.0,0.0,38,0.00,,,0.00,VWS V14.01,2013-05-24 14:58:00,
2013-05-24 08:28:00,56.8,33.4,29.88,SE,134,0.0,1.0,41,0.00,,,0.00,VWS V14.01,2013-05-24 15:28:00,
2013-05-24 08:58:00,60.9,37.1,29.89,SW,235,3.0,7.0,41,0.00,,,0.00,VWS V14.01,2013-05-24 15:58:00,
2013-05-24 09:28:00,62.2,38.2,29.89,West,275,4.0,9.0,41,0.00,,,0.00,VWS V14.01,2013-05-24 16:28:00,
2013-05-24 09:58:00,63.5,41.2,29.90,WNW,297,4.0,11.0,44,0.00,,,0.00,VWS V14.01,2013-05-24 16:58:00,
2013-05-24 10:28:00,64.2,40.7,29.90,WNW,290,6.0,11.0,42,0.00,,,0.00,VWS V14.01,2013-05-24 17:28:00,
2013-05-24 10:58:00,65.3,42.8,29.91,WNW,291,4.0,8.0,44,0.00,,,0.00,VWS V14.01,2013-05-24 17:58:00,
2013-05-24 11:28:00,67.2,42.7,29.91,SW,226,4.0,11.0,41,0.00,,,0.00,VWS V14.01,2013-05-24 18:28:00,
2013-05-24 11:58:00,67.8,43.3,29.91,SW,227,1.0,14.0,41,0.00,,,0.00,VWS V14.01,2013-05-24 18:58:00,
2013-05-24 12:28:00,68.8,42.9,29.91,West,266,5.0,12.0,39,0.00,,,0.00,VWS V14.01,2013-05-24 19:28:00,
2013-05-24 12:58:00,68.9,42.3,29.91,NW,319,9.0,11.0,38,0.00,,,0.00,VWS V14.01,2013-05-24 19:58:00,
2013-05-24 13:28:00,69.9,42.5,29.90,NW,312,2.0,13.0,37,0.00,,,0.00,VWS V14.01,2013-05-24 20:28:00,
2013-05-24 13:58:00,71.0,43.4,29.90,NW,308,0.0,13.0,37,0.00,,,0.00,VWS V14.01,2013-05-24 20:58:00,
2013-05-24 14:28:00,71.5,46.6,29.89,SW,229,9.0,12.0,41,0.00,,,0.00,VWS V14.01,2013-05-24 21:28:00,
2013-05-24 14:58:00,71.6,47.3,29.89,WSW,243,8.0,15.0,42,0.00,,,0.00,VWS V14.01,2013-05-24 21:58:00,
2013-05-24 15:28:00,71.0,46.8,29.88,SW,226,3.0,12.0,42,0.00,,,0.00,VWS V14.01,2013-05-24 22:28:00,
2013-05-24 15:58:00,71.2,46.3,29.88,SW,229,1.0,14.0,41,0.00,,,0.00,VWS V14.01,2013-05-24 22:58:00,
2013-05-24 16:28:00,69.9,47.0,29.87,West,278,4.0,10.0,44,0.00,,,0.00,VWS V14.01,2013-05-24 23:28:00,
2013-05-24 16:58:00,69.1,46.9,29.87,West,268,2.0,12.0,45,0.00,,,0.00,VWS V14.01,2013-05-24 23:58:00,
2013-05-24 17:28:00,67.9,46.4,29.87,WNW,282,2.0,9.0,46,0.00,,,0.00,VWS V14.01,2013-05-25 00:28:00,
2013-05-24 17:58:00,66.6,46.9,29.86,WNW,302,1.0,8.0,49,0.00,,,0.00,VWS V14.01,2013-05-25 00:58:00,
2013-05-24 18:28:00,64.8,46.3,29.86,NW,312,3.0,7.0,51,0.00,,,0.00,VWS V14.01,2013-05-25 01:28:00,
2013-05-24 18:58:00,63.1,46.7,29.86,WNW,297,1.0,7.0,55,0.00,,,0.00,VWS V14.01,2013-05-25 01:58:00,
2013-05-24 19:28:00,60.8,46.0,29.86,WNW,297,0.0,3.0,58,0.00,,,0.00,VWS V14.01,2013-05-25 02:28:00,
2013-05-24 19:58:00,57.3,44.8,29.86,ENE,58,1.0,2.0,63,0.00,,,0.00,VWS V14.01,2013-05-25 02:58:00,
2013-05-24 20:28:00,52.8,39.7,29.86,East,80,1.0,3.0,61,0.00,,,0.00,VWS V14.01,2013-05-25 03:28:00,
2013-05-24 20:58:00,50.2,34.2,29.88,ENE,78,1.0,3.0,54,0.00,,,0.00,VWS V14.01,2013-05-25 03:58:00,
2013-05-24 21:28:00,49.1,34.1,29.88,East,83,1.0,3.0,56,0.00,,,0.00,VWS V14.01,2013-05-25 04:28:00,
2013-05-24 21:58:00,49.2,38.3,29.89,East,81,2.0,5.0,66,0.00,,,0.00,VWS V14.01,2013-05-25 04:58:00,
2013-05-24 22:28:00,48.8,38.7,29.90,East,82,5.0,5.0,68,0.00,,,0.00,VWS V14.01,2013-05-25 05:28:00,
2013-05-24 22:58:00,49.0,34.9,29.90,East,90,3.0,7.0,58,0.00,,,0.00,VWS V14.01,2013-05-25 05:58:00,
2013-05-24 23:28:00,47.7,32.3,29.90,ENE,77,3.0,6.0,55,0.00,,,0.00,VWS V14.01,2013-05-25 06:28:00,
2013-05-24 23:58:00,46.5,28.4,29.90,ENE,73,2.0,7.0,49,0.00,,,0.00,VWS V14.01,2013-05-25 06:58:00,